This demonstration page uses our WeatherBlox Daily Observations layout. Learn more.

Left ArrowRight Arrow

Hourly Observations for May 16, 2020

Temp ( °F °C ) Dew Point ( °F °C ) Humidity (%) Winds ( mph kmh ) Pressure ( in mb ) Visibility ( mi km ) Precip ( " mm )
12:50 am 00:50 Clear with Mist and Fog 57 14 57 14 100 100 N N/A 30.02 1017 0.75 1.207005 N/A
12:53 am 00:53 Clear with Mist and Fog 58 14.4 57 13.9 97 97 N N/A 30.01 1016 0.75 1.207005 N/A
12:58 am 00:58 Clear with Mist and Fog 59 15 57 13.9 93 93 N N/A 30.02 1016 2 3.21868 N/A
1:05 am 01:05 Clear with Mist and Fog 59 15 57 13.9 93 93 N N/A 30.02 1016 6 9.65604 N/A
1:53 am 01:53 Clear with Mist and Fog 58 14.4 57 13.9 97 97 N N/A 30.01 1016 5 8.0467 N/A
2:02 am 02:02 Clear with Mist and Fog 57 13.9 56 13.3 96 96 N N/A 30.02 1017 1.75 2.816345 N/A
2:09 am 02:09 Clear with Mist and Fog 58 14.4 56 13.3 93 93 N N/A 30.01 1016 1 1.60934 N/A
2:13 am 02:13 Clear with Mist and Fog 58 14.4 56 13.3 93 93 N N/A 30.01 1016 2 3.21868 N/A
2:21 am 02:21 Clear with Mist and Fog 58 14.4 57 13.9 97 97 N N/A 30.02 1017 3 4.82802 N/A
2:32 am 02:32 Clear with Mist and Fog 58 14.4 56 13.3 93 93 N N/A 30.02 1017 1.25 2.011675 N/A
2:44 am 02:44 Mostly Cloudy with Mist and Fog 57 13.9 55 12.8 93 93 N N/A 30.02 1017 0.75 1.207005 N/A
2:53 am 02:53 Mostly Cloudy with Mist and Fog 57 13.9 56 13.3 96 96 N N/A 30 1016 0.75 1.207005 N/A
2:56 am 02:56 Partly Cloudy with Mist and Fog 57 13.9 57 13.9 100 100 N N/A 30.01 1016 1.25 2.011675 N/A
3:02 am 03:02 Partly Cloudy with Mist and Fog 57 13.9 57 13.9 100 100 N N/A 30.01 1016 2 3.21868 N/A
3:13 am 03:13 Mostly Clear with Mist and Fog 58 14.4 57 13.9 97 97 N N/A 30.01 1016 3 4.82802 N/A
3:32 am 03:32 Clear with Mist and Fog 57 13.9 56 13.3 96 96 N N/A 30.02 1017 2.5 4.02335 N/A
3:53 am 03:53 Clear with Mist and Fog 57 13.9 56 13.3 96 96 N N/A 30.01 1016 4 6.43736 N/A
4:11 am 04:11 Clear with Mist and Fog 57 13.9 57 13.9 100 100 N N/A 30.01 1016 2 3.21868 N/A
4:45 am 04:45 Partly Cloudy with Mist and Fog 57 13.9 57 13.9 100 100 N N/A 30.02 1017 3 4.82802 N/A
4:53 am 04:53 Mostly Cloudy with Mist and Fog 58 14.4 57 13.9 97 97 N N/A 30.02 1017 3 4.82802 N/A
5:32 am 05:32 Mostly Cloudy with Mist and Fog 59 15 58 14.4 96 96 N N/A 30.03 1017 2.5 4.02335 N/A
5:53 am 05:53 Mostly Clear with Mist and Fog 59 15 58 14.4 96 96 N N/A 30.03 1017 2.5 4.02335 N/A
6:53 am 06:53 Cloudy with Mist and Fog 61 16.1 60 15.6 97 97 NNE 3 6 30.04 1017 2.5 4.02335 N/A
7:03 am 07:03 Cloudy with Mist and Fog 62 16.7 60 15.6 93 93 NE 5 7 30.04 1017 4 6.43736 N/A
7:42 am 07:42 Cloudy with Mist and Fog 63 17.2 61 16.1 93 93 ENE 3 6 30.05 1018 6 9.65604 N/A
7:53 am 07:53 Cloudy with Light Rain 63 17.2 62 16.7 97 97 N N/A 30.05 1018 4 6.43736 0.001 0.001
8:00 am 08:00 Cloudy with Light Rain 63 17.2 62 16.7 97 97 N N/A 30.05 1018 3 4.82802 0.01 0.254
8:22 am 08:22 Cloudy with Light Rain 64 17.8 62 16.7 93 93 N N/A 30.07 1018 4 6.43736 0.01 0.254
8:53 am 08:53 Cloudy 65 18.3 62 16.7 90 90 N N/A 30.08 1019 8 12.87472 0.01 0.254
9:53 am 09:53 Cloudy with Light Rain 65 18.3 62 16.7 90 90 ESE 5 7 30.09 1019 5 8.0467 0.001 0.001
10:04 am 10:04 Cloudy with Light Rain 65 18.3 62 16.7 90 90 E 7 11 30.08 1019 2 3.21868 0.01 0.254
10:23 am 10:23 Cloudy with Rain 65 18.3 63 17.2 93 93 E 6 9 30.08 1019 1.5 2.41401 0.04 1.016
10:26 am 10:26 Cloudy with Light Rain 65 18.3 63 17.2 93 93 E 6 9 30.08 1019 2 3.21868 0.04 1.016
10:35 am 10:35 Cloudy with Light Rain 66 18.9 64 17.8 93 93 E 6 9 30.08 1019 10 16.0934 0.04 1.016
10:53 am 10:53 Cloudy 67 19.4 64 17.8 91 91 VRB 7 11 30.07 1018 10 16.0934 0.04 1.016
11:53 am 11:53 Cloudy 68 20 64 17.8 87 87 VRB 3 6 30.07 1018 10 16.0934 N/A
12:00 pm 12:00 Cloudy 69 20.6 64 17.8 84 84 VRB 3 6 30.06 1018 10 16.0934 N/A
12:53 pm 12:53 Cloudy 70 21.1 65 18.3 84 84 N N/A 30.07 1018 9 14.48406 N/A
12:59 pm 12:59 Cloudy with Light Rain 71 21.7 65 18.3 81 81 E 6 9 30.06 1018 9 14.48406 0.001 0.001
1:53 pm 13:53 Mostly Cloudy 73 22.8 66 18.9 79 79 SSE 5 7 30.05 1018 10 16.0934 0.001 0.001
2:53 pm 14:53 Mostly Cloudy 76 24.4 66 18.9 72 72 N N/A 30.04 1017 10 16.0934 N/A
3:53 pm 15:53 Mostly Cloudy 75 23.9 64 17.8 69 69 ENE 8 13 30.02 1017 10 16.0934 N/A
4:53 pm 16:53 Cloudy 74 23.3 64 17.8 71 71 E 12 19 30.02 1017 10 16.0934 N/A
5:53 pm 17:53 Mostly Sunny 76 24.4 64 17.8 67 67 ENE 13 20 30 1016 10 16.0934 N/A
6:53 pm 18:53 Sunny 74 23.3 63 17.2 69 69 ENE 12 19 29.99 1016 10 16.0934 N/A
7:53 pm 19:53 Sunny 73 22.8 62 16.7 69 69 E 8 13 30 1016 10 16.0934 N/A
8:53 pm 20:53 Clear 69 20.6 62 16.7 78 78 E 6 9 30 1016 10 16.0934 N/A
9:53 pm 21:53 Clear 68 20 62 16.7 81 81 ENE 5 7 30 1016 10 16.0934 N/A
10:53 pm 22:53 Clear 65 18.3 62 16.7 90 90 N N/A 30.01 1016 10 16.0934 N/A
11:53 pm 23:53 Mostly Cloudy 65 18.3 62 16.7 90 90 E 5 7 30.01 1016 10 16.0934 N/A

Powered by AerisWeather